Simultaneous Nadir Overpasses (SNOs) Predictions

Prediction of SNOs between GOES-15 and TERRA Satellite Orbit:

Table of predicted SNOs for the next 14.0 days since TLE Epoch: 11/1/2014
Index Date Time (GOES-15) GOES-15 Lat,Lon TERRA Lat,Lon Distance(km) Time Diff (sec)
1 11/01/2014 07:16:14 0.28,-134.98 0.91,-131.97 341.97 80
2 11/01/2014 19:37:28 -0.26,-135.00 0.19,-137.12 240.92 80
3 11/03/2014 19:27:55 -0.26,-134.93 -0.42,-134.16 88.27 80
4 11/05/2014 19:15:43 -0.27,-134.86 -1.06,-131.20 416.69 80
5 11/06/2014 07:37:06 0.25,-134.80 -0.11,-136.38 179.90 80
6 11/08/2014 07:22:15 0.25,-134.72 0.55,-133.43 147.49 80
7 11/08/2014 19:46:10 -0.23,-134.73 0.59,-138.58 436.85 80
8 11/10/2014 07:10:03 0.25,-134.63 1.12,-130.46 474.19 80
9 11/10/2014 19:31:19 -0.23,-134.65 -0.03,-135.62 110.21 80
10 11/12/2014 19:21:48 -0.23,-134.56 -0.62,-132.66 215.82 80
11 11/13/2014 07:43:12 0.21,-134.50 -0.51,-137.85 380.40 80




NCC Satellite Simultaneous Nadir Overpasses (SNOs) Prediction Service
